Location: Unspecified
(43.3830°N, 0.0000°E)
Time: 08:52:09
(UTC+00:00)

N. Korean satellite - Pass Details

Date: 25 November 2020
Orbit: 453 x 502 km, 97.2° (Epoch: 16 January)

Event Time Altitude Azimuth Distance (km) Brightness Sun altitude
Rises 05:14:41 0° 17° (NNE) 2,539 10.3 -19.9°
Reaches altitude 10° 05:16:47 10° 22° (NNE) 1,664 9.4 -19.5°
Maximum altitude 05:20:17 51° 100° (E) 620 7.4 -18.9°
Drops below altitude 10° 05:23:48 10° 177° (S) 1,677 9.5 -18.2°
Sets 05:25:55 0° 182° (S) 2,560 10.4 -17.9°
